Location: Newark
(43.0658°N, 122.2322°W)
Time: 18:23:57
(UTC+00:00)

STARLINK-1727 - Pass Details

Date: 21 September 2020
Orbit: 549 x 551 km, 53.0° (Epoch: 28 October)

Event Time Altitude Azimuth Distance (km) Brightness Sun altitude
Exits shadow 12:03:34 17° 325° (NW) 1,479 5.7 -20.8°
Maximum altitude 12:05:18 21° 358° (N) 1,298 5.7 -20.5°
Drops below altitude 10° 12:08:35 10° 48° (NE) 1,870 7.3 -20.0°
Sets 12:11:18 0° 65° (ENE) 2,770 8.8 -19.5°
